CW3996 Weather Reports


Display with metric or nautical units.
time (UTC)temp
F
wind
direction
speed
MPH
gust
MPH
rain 1hr
in
rain 24hr
in
rain mn
in
humidity
%
barometer
mb
20260504060222 63 196 19.0 32.0 0.00 0.00 0.00 21 1012.2
20260504050721 62 175 12.0 28.0 0.00 0.00 0.00 26 1012.9
20260504050217 62 186 13.0 28.0 0.00 0.00 0.00 25 1012.8
20260504045730 63 188 17.0 27.0 0.00 0.00 0.00 23 1012.6
20260504045224 64 192 19.0 27.0 0.00 0.00 0.00 21 1012.3
20260504044738 65 221 20.0 27.0 0.00 0.00 0.00 19 1012.0
20260504044231 65 217 16.0 24.0 0.00 0.00 0.00 17 1011.9
20260504043223 66 234 13.0 22.0 0.00 0.00 0.00 15 1011.5
20260504042717 66 225 11.0 21.0 0.00 0.00 0.00 15 1011.1
20260504042231 66 239 12.0 21.0 0.00 0.00 0.00 13 1011.1
20260504041725 67 161 9.0 14.0 0.00 0.00 0.00 12 1010.5
20260504041219 66 161 7.0 10.0 0.00 0.00 0.00 13 1010.3
20260504040732 65 161 7.0 11.0 0.00 0.00 0.00 14 1010.2
20260504040248 65 161 7.0 11.0 0.00 0.00 0.00 13 1010.1
20260504035721 65 161 8.0 14.0 0.00 0.00 0.00 14 1010.1
20260504035219 64 161 9.0 15.0 0.00 0.00 0.00 14 1010.0
20260504034734 64 161 11.0 15.0 0.00 0.00 0.00 14 1009.9
20260504034227 64 165 11.0 15.0 0.00 0.00 0.00 14 1009.9
20260504033721 64 169 11.0 14.0 0.00 0.00 0.00 15 1009.9
20260504033216 64 172 9.0 11.0 0.00 0.00 0.00 15 1010.0
20260504032729 64 172 7.0 10.0 0.00 0.00 0.00 15 1010.0
20260504032241 64 172 8.0 11.0 0.00 0.00 0.00 15 1009.9
20260504031713 64 172 8.0 12.0 0.00 0.00 0.00 15 1010.0
20260504031230 64 173 10.0 12.0 0.00 0.00 0.00 15 1010.0
20260504030723 65 182 8.0 11.0 0.00 0.00 0.00 15 1010.0
20260504030218 65 184 7.0 11.0 0.00 0.00 0.00 14 1010.0
20260504025751 65 188 8.0 10.0 0.00 0.00 0.00 14 1009.9
20260504025222 65 188 8.0 10.0 0.00 0.00 0.00 14 1009.9
20260504024716 65 188 6.0 8.0 0.00 0.00 0.00 14 1009.9
20260504024230 65 188 5.0 7.0 0.00 0.00 0.00 14 1009.8
20260504023724 65 188 5.0 7.0 0.00 0.00 0.00 15 1009.8
20260504023222 65 188 5.0 7.0 0.00 0.00 0.00 14 1009.8
20260504022716 65 188 1.0 4.0 0.00 0.00 0.00 17 1009.8
20260504022231 66 188 2.0 4.0 0.00 0.00 0.00 15 1009.8
20260504021724 66 188 2.0 4.0 0.00 0.00 0.00 14 1009.8
20260504021218 66 188 1.0 4.0 0.00 0.00 0.00 14 1009.8
20260504020733 68 188 2.0 4.0 0.00 0.00 0.00 12 1009.7
20260504020228 68 188 0.0 4.0 0.00 0.00 0.00 12 1009.7
20260504015722 70 188 2.0 6.0 0.00 0.00 0.00 11 1009.7
20260504015220 71 188 4.0 6.0 0.00 0.00 0.00 9 1009.8
20260504014714 71 188 4.0 8.0 0.00 0.00 0.00 9 1009.8
20260504014248 71 188 3.0 10.0 0.00 0.00 0.00 8 1009.8
20260504013721 72 188 6.0 10.0 0.00 0.00 0.00 7 1009.9
20260504013215 72 188 6.0 9.0 0.00 0.00 0.00 8 1010.0
20260504012728 72 188 5.0 9.0 0.00 0.00 0.00 7 1010.0
20260504012244 72 188 4.0 7.0 0.00 0.00 0.00 7 1010.1
20260504011716 72 188 2.0 7.0 0.00 0.00 0.00 8 1010.1
20260504011214 73 188 5.0 10.0 0.00 0.00 0.00 7 1010.2
20260504010728 73 188 4.0 12.0 0.00 0.00 0.00 6 1010.2
20260504010224 73 188 5.0 12.0 0.00 0.00 0.00 7 1010.3
20260504005718 73 199 5.0 12.0 0.00 0.00 0.00 7 1010.4
20260504005232 73 265 3.0 10.0 0.00 0.00 0.00 12 1010.4
20260504004725 73 261 1.0 4.0 0.00 0.00 0.00 6 1010.4
20260504004220 73 261 2.0 7.0 0.00 0.00 0.00 6 1010.5
20260504003714 74 261 4.0 11.0 0.00 0.00 0.00 6 1010.6
20260504003232 75 261 8.0 11.0 0.00 0.00 0.00 6 1010.7
20260504002726 75 260 6.0 10.0 0.00 0.00 0.00 6 1010.7
20260504002220 74 261 6.0 9.0 0.00 0.00 0.00 6 1010.7
20260504001714 73 261 2.0 11.0 0.00 0.00 0.00 8 1010.8
20260504001228 72 261 7.0 12.0 0.00 0.00 0.00 7 1010.9
20260504000721 73 261 5.0 14.0 0.00 0.00 0.00 7 1010.9
20260504000238 73 257 8.0 14.0 0.00 0.00 0.00 8 1010.9
20260503235729 72 249 10.0 14.0 0.00 0.00 0.00 7 1010.9
20260503235223 72 250 8.0 14.0 0.00 0.00 0.00 7 1010.9
20260503234721 72 252 9.0 15.0 0.00 0.00 0.00 6 1011.0
20260503234216 72 253 8.0 16.0 0.00 0.00 0.00 6 1011.0
20260503233729 73 245 11.0 23.0 0.00 0.00 0.00 6 1011.0
20260503233224 73 240 8.0 23.0 0.00 0.00 0.00 6 1010.9
20260503232717 74 238 11.0 20.0 0.00 0.00 0.00 5 1011.0
20260503232231 74 238 8.0 20.0 0.00 0.00 0.00 4 1011.0
20260503231725 75 225 5.0 14.0 0.00 0.00 0.00 4 1010.9
20260503231223 74 231 6.0 9.0 0.00 0.00 0.00 3 1011.0
20260503230717 75 231 6.0 14.0 0.00 0.00 0.00 3 1011.0
20260503230233 76 230 7.0 14.0 0.00 0.00 0.00 3 1011.0
20260503225726 78 229 7.0 12.0 0.00 0.00 0.00 2 1011.0
20260503225220 78 229 8.0 12.0 0.00 0.00 0.00 2 1011.1
20260503224714 78 239 4.0 9.0 0.00 0.00 0.00 2 1011.1
20260503224228 77 240 4.0 12.0 0.00 0.00 0.00 3 1011.1
20260503223722 76 240 5.0 12.0 0.00 0.00 0.00 3 1011.1
20260503223220 76 237 4.0 8.0 0.00 0.00 0.00 7 1011.1
20260503222714 77 236 2.0 9.0 0.00 0.00 0.00 3 1011.3
20260503222228 77 236 5.0 9.0 0.00 0.00 0.00 3 1011.4
20260503221721 76 237 1.0 10.0 0.00 0.00 0.00 3 1011.4
20260503221237 75 237 3.0 10.0 0.00 0.00 0.00 4 1011.6
20260503220729 74 236 3.0 7.0 0.00 0.00 0.00 4 1011.7
20260503220245 74 236 3.0 9.0 0.00 0.00 0.00 5 1011.8
20260503215717 74 236 4.0 12.0 0.00 0.00 0.00 3 1012.0
20260503215252 75 236 6.0 13.0 0.00 0.00 0.00 3 1012.1
20260503214729 77 236 9.0 15.0 0.00 0.00 0.00 3 1012.2
20260503214221 76 234 11.0 15.0 0.00 0.00 0.00 2 1012.3
20260503213716 75 220 9.0 14.0 0.00 0.00 0.00 3 1012.4
20260503213230 75 246 1.0 11.0 0.00 0.00 0.00 3 1012.4
20260503212722 75 246 4.0 16.0 0.00 0.00 0.00 3 1012.5
20260503212216 76 245 8.0 16.0 0.00 0.00 0.00 3 1012.5
20260503211730 74 234 4.0 11.0 0.00 0.00 0.00 4 1012.6
20260503211224 74 232 2.0 8.0 0.00 0.00 0.00 4 1012.7
20260503210718 74 233 2.0 9.0 0.00 0.00 0.00 3 1012.8
20260503210217 74 233 5.0 10.0 0.00 0.00 0.00 4 1012.8
20260503205731 75 233 8.0 11.0 0.00 0.00 0.00 4 1013.0
20260503205225 74 233 8.0 11.0 0.00 0.00 0.00 4 1013.0
20260503204739 74 230 8.0 11.0 0.00 0.00 0.00 4 1013.0
20260503204233 74 225 7.0 11.0 0.00 0.00 0.00 4 1013.1
20260503203726 76 219 6.0 9.0 0.00 0.00 0.00 3 1013.1
20260503203220 74 214 1.0 9.0 0.00 0.00 0.00 3 1013.2
20260503202733 75 215 4.0 12.0 0.00 0.00 0.00 3 1013.3
20260503202227 75 214 8.0 12.0 0.00 0.00 0.00 3 1013.5
20260503201725 76 217 6.0 10.0 0.00 0.00 0.00 3 1013.5
20260503201219 76 217 5.0 9.0 0.00 0.00 0.00 3 1013.5
20260503200733 75 217 2.0 6.0 0.00 0.00 0.00 4 1013.6
20260503200228 74 217 1.0 11.0 0.00 0.00 0.00 5 1013.8
20260503195721 74 217 5.0 12.0 0.00 0.00 0.00 2 1013.8
20260503195216 75 214 8.0 17.0 0.00 0.00 0.00 3 1014.0
20260503194729 76 215 7.0 17.0 0.00 0.00 0.00 3 1014.0
20260503194223 76 178 5.0 14.0 0.00 0.00 0.00 1 1014.1
20260503193721 77 178 10.0 18.0 0.00 0.00 0.00 2 1014.2
20260503193216 77 203 9.0 18.0 0.00 0.00 0.00 2 1014.2
20260503192730 76 202 10.0 15.0 0.00 0.00 0.00 3 1014.2
20260503192224 75 201 9.0 15.0 0.00 0.00 0.00 3 1014.4
20260503191719 74 234 6.0 10.0 0.00 0.00 0.00 2 1014.4
20260503191213 73 236 1.0 4.0 0.00 0.00 0.00 3 1014.6
20260503190727 73 236 3.0 8.0 0.00 0.00 0.00 3 1014.6
20260503190227 74 236 2.0 13.0 0.00 0.00 0.00 3 1014.8
20260503185720 75 236 5.0 18.0 0.00 0.00 0.00 3 1014.8
20260503185214 76 234 10.0 18.0 0.00 0.00 0.00 2 1015.0
20260503184748 77 213 11.0 16.0 0.00 0.00 0.00 2 1015.0
20260503184221 77 247 9.0 15.0 0.00 0.00 0.00 2 1015.0
20260503183715 76 214 5.0 9.0 0.00 0.00 0.00 2 1015.1
20260503183229 75 214 4.0 15.0 0.00 0.00 0.00 2 1015.2
20260503182723 74 215 1.0 15.0 0.00 0.00 0.00 4 1015.3
20260503182216 75 215 8.0 14.0 0.00 0.00 0.00 2 1015.4
20260503181714 74 198 2.0 7.0 0.00 0.00 0.00 6 1015.5
20260503180721 74 198 7.0 10.0 0.00 0.00 0.00 2 1015.7
20260503180217 74 195 5.0 9.0 0.00 0.00 0.00 4 1015.7
20260503175730 73 194 3.0 9.0 0.00 0.00 0.00 7 1015.8
20260503175224 74 194 6.0 10.0 0.00 0.00 0.00 4 1015.9
20260503174717 73 194 4.0 10.0 0.00 0.00 0.00 6 1015.9
20260503174232 73 194 4.0 10.0 0.00 0.00 0.00 6 1016.0
20260503173731 73 188 3.0 10.0 0.00 0.00 0.00 9 1015.9
20260503173246 73 188 5.0 10.0 0.00 0.00 0.00 7 1016.1
20260503172718 73 175 5.0 7.0 0.00 0.00 0.00 8 1016.1
20260503172233 73 158 4.0 7.0 0.00 0.00 0.00 9 1016.1
20260503171727 72 158 3.0 6.0 0.00 0.00 0.00 10 1016.2
20260503171221 72 158 3.0 9.0 0.00 0.00 0.00 8 1016.2
20260503170715 72 158 3.0 9.0 0.00 0.00 0.00 11 1016.3
20260503170230 71 158 2.0 7.0 0.00 0.00 0.00 11 1016.3
20260503150719 62 158 4.0 5.0 0.00 0.00 0.00 16 1016.8
20260503150254 61 158 3.0 5.0 0.00 0.00 0.00 19 1016.8
20260503140223 55 159 0.0 3.0 0.00 0.00 0.00 23 1016.8
20260503131251 57 159 7.0 10.0 0.00 0.00 0.00 18 1016.5
20260503130724 56 159 7.0 10.0 0.00 0.00 0.00 18 1016.4
20260503130219 56 159 6.0 10.0 0.00 0.00 0.00 19 1016.4
20260503110730 54 159 0.0 2.0 0.00 0.00 0.00 20 1016.4
20260503110226 56 159 0.0 5.0 0.00 0.00 0.00 17 1016.4
20260503100218 56 159 7.0 8.0 0.00 0.00 0.00 17 1016.5
20260503090233 52 165 1.0 7.0 0.00 0.00 0.00 22 1016.6
20260503081231 56 165 6.0 10.0 0.00 0.00 0.00 16 1016.9
20260503080724 56 165 8.0 10.0 0.00 0.00 0.00 15 1017.0
20260503080220 56 165 3.0 8.0 0.00 0.00 0.00 15 1017.0
20260503072717 59 165 7.0 9.0 0.00 0.00 0.00 13 1017.1
20260503072231 58 165 4.0 9.0 0.00 0.00 0.00 14 1017.1
20260503071725 60 165 5.0 9.0 0.00 0.00 0.00 11 1017.0
20260503071219 60 165 7.0 9.0 0.00 0.00 0.00 11 1017.0
20260503070713 60 165 7.0 12.0 0.00 0.00 0.00 10 1017.0
20260503070227 60 165 6.0 12.0 0.00 0.00 0.00 10 1016.9